CW8262 Weather Reports


Display with metric or nautical units.
time (UTC)temp
F
wind
direction
speed
MPH
gust
MPH
rain 1hr
in
rain 24hr
in
rain mn
in
humidity
%
barometer
mb
20181216223204 72 22 0.0 1.0 0.00 0.00 0.00 68 1031.1
20181216222709 72 337 1.0 1.0 0.00 0.00 0.00 68 1031.3
20181216222204 71 248 2.0 1.0 0.00 0.00 0.00 68 1031.3
20181216221704 71 354 3.0 5.0 0.00 0.00 0.00 68 1031.3
20181216220705 71 276 5.0 5.0 0.00 0.00 0.00 68 1031.5
20181216220205 71 292 5.0 7.0 0.00 0.00 0.00 68 1031.5
20181216215704 72 315 3.0 7.0 0.00 0.00 0.00 68 1031.5
20181216215205 72 315 3.0 7.0 0.00 0.00 0.00 68 1031.5
20181216214707 72 261 2.0 5.0 0.00 0.00 0.00 68 1031.3
20181216214204 72 338 2.0 6.0 0.00 0.00 0.00 69 1031.3
20181216213704 71 331 2.0 5.0 0.00 0.00 0.00 68 1031.3
20181216213204 71 315 3.0 6.0 0.00 0.00 0.00 67 1031.3
20181216212707 70 315 3.0 6.0 0.00 0.00 0.00 67 1031.6
20181216212205 69 315 3.0 6.0 0.00 0.00 0.00 66 1031.6
20181216210707 69 307 5.0 6.0 0.00 0.00 0.00 62 1031.6
20181216210205 68 292 3.0 5.0 0.00 0.00 0.00 62 1031.6
20181216205204 68 292 5.0 5.0 0.00 0.00 0.00 61 1031.6
20181216204706 68 112 5.0 6.0 0.00 0.00 0.00 62 1031.6
20181216203204 68 315 5.0 7.0 0.00 0.00 0.00 64 1031.6
20181216202705 67 312 3.0 7.0 0.00 0.00 0.00 64 1031.4
20181216202204 67 21 4.0 5.0 0.00 0.00 0.00 65 1031.4
20181216201704 67 338 5.0 5.0 0.00 0.00 0.00 65 1031.4
20181216201204 68 316 5.0 6.0 0.00 0.00 0.00 66 1031.4
20181216200704 68 338 5.0 7.0 0.00 0.00 0.00 65 1031.4
20181216200204 68 315 4.0 7.0 0.00 0.00 0.00 64 1031.4
20181216195204 67 22 2.0 2.0 0.00 0.00 0.00 51 1031.4
20181216194707 67 298 2.0 5.0 0.00 0.00 0.00 53 1031.4
20181216194204 66 292 2.0 3.0 0.00 0.00 0.00 50 1031.4
20181216193204 66 315 3.0 5.0 0.00 0.00 0.00 47 1031.4
20181216192705 66 320 3.0 5.0 0.00 0.00 0.00 48 1031.3
20181216192205 65 315 3.0 6.0 0.00 0.00 0.00 49 1031.3
20181216191205 65 292 5.0 6.0 0.00 0.00 0.00 49 1031.3
20181216190706 65 294 5.0 6.0 0.00 0.00 0.00 50 1031.3
20181216190205 65 315 5.0 6.0 0.00 0.00 0.00 46 1031.3
20181216185704 65 315 2.0 6.0 0.00 0.00 0.00 38 1031.3
20181216185204 65 315 3.0 6.0 0.00 0.00 0.00 38 1031.3
20181216184205 64 338 3.0 7.0 0.00 0.00 0.00 38 1031.1
20181216183705 64 315 3.0 5.0 0.00 0.00 0.00 39 1031.1
20181216182709 64 339 2.0 5.0 0.00 0.00 0.00 37 1031.1
20181216182205 64 338 2.0 2.0 0.00 0.00 0.00 32 1031.1
20181216181205 63 338 1.0 3.0 0.00 0.00 0.00 27 1031.1
20181216175205 63 158 1.0 3.0 0.00 0.00 0.00 28 1031.0
20181216174705 63 316 1.0 2.0 0.00 0.00 0.00 27 1030.7
20181216174204 63 0 1.0 2.0 0.00 0.00 0.00 27 1030.7
20181216173705 62 338 1.0 1.0 0.00 0.00 0.00 28 1030.7
20181216173206 62 0 1.0 2.0 0.00 0.00 0.00 29 1030.7
20181216172205 62 315 2.0 3.0 0.00 0.00 0.00 31 1030.8
20181216171704 62 315 2.0 3.0 0.00 0.00 0.00 33 1030.8
20181216171205 62 315 2.0 3.0 0.00 0.00 0.00 34 1030.8
20181216170704 62 315 1.0 2.0 0.00 0.00 0.00 36 1030.7
20181216170205 62 315 0.0 2.0 0.00 0.00 0.00 38 1030.7
20181216165704 62 22 0.0 0.0 0.00 0.00 0.00 38 1030.7
20181216165205 62 0 0.0 0.0 0.00 0.00 0.00 38 1030.7
20181216164704 62 22 0.0 0.0 0.00 0.00 0.00 38 1030.9
20181216164204 62 339 0.0 0.0 0.00 0.00 0.00 39 1030.9
20181216163705 62 45 0.0 0.0 0.00 0.00 0.00 40 1030.9
20181216162706 62 0 0.0 0.0 0.00 0.00 0.00 42 1030.8
20181216162204 63 22 0.0 0.0 0.00 0.00 0.00 42 1030.8
20181216161705 63 22 0.0 0.0 0.00 0.00 0.00 41 1030.8
20181216161205 63 22 0.0 1.0 0.00 0.00 0.00 40 1030.8
20181216160704 63 22 0.0 0.0 0.00 0.00 0.00 41 1030.4
20181216155704 63 45 0.0 0.0 0.00 0.00 0.00 42 1030.4
20181216155206 63 45 0.0 0.0 0.00 0.00 0.00 42 1030.4
20181216154705 63 22 0.0 0.0 0.00 0.00 0.00 42 1030.8
20181216153705 63 22 0.0 0.0 0.00 0.00 0.00 44 1030.8
20181216152204 63 20 0.0 1.0 0.00 0.00 0.00 44 1030.7
20181216151705 63 22 0.0 1.0 0.00 0.00 0.00 43 1030.7
20181216150704 63 22 0.0 0.0 0.00 0.00 0.00 44 1030.4
20181216150206 63 22 0.0 0.0 0.00 0.00 0.00 44 1030.4
20181216145705 63 19 0.0 0.0 0.00 0.00 0.00 45 1030.4
20181216145207 63 343 1.0 1.0 0.00 0.00 0.00 45 1030.4
20181216144704 63 23 0.0 2.0 0.00 0.00 0.00 47 1030.2
20181216144204 63 45 0.0 0.0 0.00 0.00 0.00 49 1030.2
20181216142705 64 22 1.0 2.0 0.00 0.00 0.00 49 1030.6
20181216142204 64 338 0.0 0.0 0.00 0.00 0.00 50 1030.6
20181216141205 64 22 0.0 0.0 0.00 0.00 0.00 52 1030.6
20181216140704 64 339 1.0 2.0 0.00 0.00 0.00 52 1030.8
20181216140205 64 22 1.0 2.0 0.00 0.00 0.00 52 1030.8
20181216135704 64 21 0.0 2.0 0.00 0.00 0.00 53 1030.8
20181216135205 64 316 0.0 2.0 0.00 0.00 0.00 54 1030.8
20181216133704 64 67 0.0 0.0 0.00 0.00 0.00 54 1030.8
20181216133207 64 22 1.0 1.0 0.00 0.00 0.00 54 1030.8
20181216132704 64 28 1.0 2.0 0.00 0.00 0.00 55 1030.8
20181216132204 64 22 0.0 2.0 0.00 0.00 0.00 56 1030.8
20181216131207 64 68 0.0 0.0 0.00 0.00 0.00 57 1030.8
20181216130704 64 41 1.0 2.0 0.00 0.00 0.00 57 1031.3
20181216130205 64 22 2.0 2.0 0.00 0.00 0.00 58 1031.3
20181216125705 64 22 2.0 3.0 0.00 0.00 0.00 58 1031.3
20181216125204 64 45 0.0 3.0 0.00 0.00 0.00 58 1031.3
20181216124704 64 22 0.0 1.0 0.00 0.00 0.00 59 1031.4
20181216124205 64 22 0.0 1.0 0.00 0.00 0.00 59 1031.4
20181216123704 64 19 1.0 2.0 0.00 0.00 0.00 59 1031.4
20181216123204 64 45 0.0 1.0 0.00 0.00 0.00 60 1031.4
20181216122704 64 45 0.0 1.0 0.00 0.00 0.00 60 1031.3
20181216121705 64 45 1.0 1.0 0.00 0.00 0.00 61 1031.3
20181216120704 64 35 0.0 1.0 0.00 0.00 0.00 61 1031.5
20181216120204 64 68 0.0 1.0 0.00 0.00 0.00 62 1031.5
20181216115702 64 45 0.0 0.0 0.00 0.00 0.00 62 1031.5
20181216114202 64 45 1.0 2.0 0.00 0.00 0.00 64 1031.4
20181216113704 64 37 1.0 2.0 0.00 0.00 0.00 64 1031.4
20181216111202 65 22 0.0 1.0 0.00 0.00 0.00 65 1031.6
20181216110702 65 71 1.0 1.0 0.00 0.00 0.00 65 1031.4
20181216110202 65 22 1.0 2.0 0.00 0.00 0.00 65 1031.4
20181216105702 65 35 2.0 2.0 0.00 0.00 0.00 65 1031.4
20181216105202 65 22 1.0 3.0 0.00 0.00 0.00 66 1031.4
20181216104702 65 22 1.0 3.0 0.00 0.00 0.00 66 1031.4
20181216103701 65 29 2.0 3.0 0.00 0.00 0.00 66 1031.4
20181216102202 65 22 1.0 1.0 0.00 0.00 0.00 67 1031.6
20181216101701 65 31 2.0 3.0 0.00 0.00 0.00 68 1031.6
20181216101202 65 22 2.0 5.0 0.00 0.00 0.00 68 1031.6
20181216095202 65 45 3.0 6.0 0.00 0.00 0.00 67 1031.3
20181216094702 65 37 5.0 6.0 0.00 0.00 0.00 67 1031.3
20181216093703 66 22 3.0 6.0 0.00 0.00 0.00 67 1031.3
20181216093203 66 22 3.0 3.0 0.00 0.00 0.00 67 1031.3
20181216091202 66 22 5.0 7.0 0.00 0.00 0.00 68 1031.4
20181216090203 66 45 5.0 5.0 0.00 0.00 0.00 68 1031.3
20181216085702 67 16 5.0 7.0 0.00 0.00 0.00 68 1031.3
20181216084201 67 45 3.0 5.0 0.00 0.00 0.00 68 1031.1
20181216083702 67 22 3.0 5.0 0.00 0.00 0.00 68 1031.1
20181216083202 68 22 5.0 5.0 0.00 0.00 0.00 68 1031.1
20181216082702 68 22 5.0 7.0 0.00 0.00 0.00 68 1031.0
20181216081701 69 22 4.0 7.0 0.00 0.00 0.00 68 1031.0
20181216081202 69 45 3.0 5.0 0.00 0.00 0.00 68 1031.0
20181216080702 69 22 3.0 3.0 0.00 0.00 0.00 68 1030.4
20181216080202 69 0 5.0 6.0 0.00 0.00 0.00 68 1030.4
20181216075701 70 22 5.0 8.0 0.00 0.00 0.00 67 1030.4
20181216075202 70 45 5.0 7.0 0.00 0.00 0.00 67 1030.4
20181216074202 71 45 3.0 5.0 0.00 0.00 0.00 68 1031.3
20181216073202 71 45 3.0 5.0 0.00 0.00 0.00 68 1031.3
20181216072702 71 22 5.0 6.0 0.00 0.00 0.00 67 1031.8
20181216072202 71 45 5.0 5.0 0.00 0.00 0.00 67 1031.8
20181216071703 72 31 6.0 7.0 0.00 0.00 0.00 67 1031.8
20181216071202 72 22 5.0 7.0 0.00 0.00 0.00 67 1031.8
20181216070702 72 45 5.0 8.0 0.00 0.00 0.00 67 1032.3
20181216070202 72 338 3.0 8.0 0.00 0.00 0.00 67 1032.3
20181216065702 72 334 3.0 5.0 0.00 0.00 0.00 67 1032.3
20181216065205 73 0 3.0 3.0 0.00 0.00 0.00 66 1032.3
20181216064706 73 332 5.0 7.0 0.00 0.00 0.00 66 1034.3
20181216064203 73 338 5.0 6.0 0.00 0.00 0.00 65 1034.3
20181216063702 73 315 5.0 7.0 0.00 0.00 0.00 65 1034.3
20181216063203 74 315 5.0 8.0 0.00 0.00 0.00 65 1034.3
20181216062703 74 323 3.0 8.0 0.00 0.00 0.00 64 1033.0
20181216062203 75 338 3.0 3.0 0.00 0.00 0.00 64 1033.0
20181216060702 75 315 5.0 7.0 0.00 0.00 0.00 64 1031.2
20181216060204 76 315 6.0 7.0 0.00 0.00 0.00 63 1031.2
20181216055702 76 335 5.0 7.0 0.00 0.00 0.00 62 1031.2
20181216055202 76 338 5.0 7.0 0.00 0.00 0.00 61 1031.2
20181216054702 77 322 5.0 6.0 0.00 0.00 0.00 61 1030.9
20181216054201 77 292 5.0 7.0 0.00 0.00 0.00 61 1030.9
20181216053703 77 322 5.0 8.0 0.00 0.00 0.00 60 1030.9
20181216052702 78 309 3.0 7.0 0.00 0.00 0.00 60 1030.5
20181216052203 78 315 3.0 5.0 0.00 0.00 0.00 58 1030.5
20181216051705 79 344 3.0 5.0 0.00 0.00 0.00 59 1030.5
20181216051203 79 315 5.0 8.0 0.00 0.00 0.00 59 1030.5
20181216050703 79 338 6.0 8.0 0.00 0.00 0.00 59 1030.4
20181216045202 80 338 5.0 8.0 0.00 0.00 0.00 56 1030.4
20181216044203 80 315 2.0 3.0 0.00 0.00 0.00 54 1030.3
20181216043702 80 237 3.0 3.0 0.00 0.00 0.00 54 1030.3
20181216042702 81 252 2.0 6.0 0.00 0.00 0.00 54 1029.9
20181216042203 81 270 2.0 3.0 0.00 0.00 0.00 49 1029.9
20181216041201 82 270 4.0 5.0 0.00 0.00 0.00 50 1029.9
20181216040703 82 252 2.0 5.0 0.00 0.00 0.00 49 1029.8
20181216040204 82 225 1.0 3.0 0.00 0.00 0.00 48 1029.8
20181216035702 81 180 0.0 0.0 0.00 0.00 0.00 48 1029.8
20181216034702 81 260 0.0 1.0 0.00 0.00 0.00 48 1030.0
20181216034202 80 292 0.0 0.0 0.00 0.00 0.00 48 1030.0
20181216033702 81 180 0.0 0.0 0.00 0.00 0.00 46 1030.0
20181216033203 81 292 1.0 1.0 0.00 0.00 0.00 49 1030.0
20181216032702 82 248 1.0 2.0 0.00 0.00 0.00 48 1029.8
20181216032202 82 180 0.0 2.0 0.00 0.00 0.00 49 1029.8
20181216031202 82 0 1.0 2.0 0.00 0.00 0.00 46 1029.8
20181216030703 82 138 1.0 2.0 0.00 0.00 0.00 46 1030.0
20181216030203 83 135 1.0 2.0 0.00 0.00 0.00 46 1030.0
20181216025702 85 116 1.0 1.0 0.00 0.00 0.00 45 1030.0
20181216025203 85 270 2.0 3.0 0.00 0.00 0.00 46 1030.0
20181216024203 85 248 2.0 3.0 0.00 0.00 0.00 48 1029.9
20181216023705 85 248 2.0 5.0 0.00 0.00 0.00 48 1029.9
20181216023203 85 270 1.0 2.0 0.00 0.00 0.00 48 1029.9
20181216022203 83 248 2.0 2.0 0.00 0.00 0.00 51 1030.0
20181216021703 83 242 2.0 5.0 0.00 0.00 0.00 49 1030.0
20181216021204 83 292 2.0 5.0 0.00 0.00 0.00 49 1030.0
20181216020704 83 255 1.0 3.0 0.00 0.00 0.00 49 1030.0
20181216015704 82 183 1.0 2.0 0.00 0.00 0.00 49 1030.0
20181216015203 83 180 1.0 3.0 0.00 0.00 0.00 46 1030.0
20181216014703 83 156 1.0 3.0 0.00 0.00 0.00 46 1029.9
20181216014202 83 202 0.0 2.0 0.00 0.00 0.00 48 1029.9
20181216013203 84 22 1.0 2.0 0.00 0.00 0.00 47 1029.9
20181216012702 85 107 1.0 2.0 0.00 0.00 0.00 47 1030.0
20181216012204 84 315 1.0 1.0 0.00 0.00 0.00 48 1030.0
20181216011703 84 4 2.0 3.0 0.00 0.00 0.00 48 1030.0
20181216011203 83 315 1.0 3.0 0.00 0.00 0.00 48 1030.0
20181216010702 83 131 1.0 2.0 0.00 0.00 0.00 51 1029.8
20181216010203 83 135 1.0 3.0 0.00 0.00 0.00 50 1029.8
20181216003703 81 157 1.0 3.0 0.00 0.00 0.00 50 1029.8
20181216002703 81 157 2.0 5.0 0.00 0.00 0.00 52 1029.7
20181216002203 81 135 2.0 5.0 0.00 0.00 0.00 51 1029.7
20181216001702 81 68 2.0 3.0 0.00 0.00 0.00 54 1029.7
20181216001203 81 68 2.0 3.0 0.00 0.00 0.00 54 1029.7
20181216000703 80 23 1.0 3.0 0.00 0.00 0.00 54 1030.1
20181215235703 81 159 1.0 2.0 0.00 0.00 0.00 51 1030.1
20181215234702 82 201 1.0 5.0 0.00 0.00 0.00 52 1030.2
20181215234202 82 90 1.0 5.0 0.00 0.00 0.00 55 1030.2
20181215233702 81 90 1.0 1.0 0.00 0.00 0.00 55 1030.2
20181215233201 81 159 1.0 1.0 0.00 0.00 0.00 54 1030.2
20181215232704 81 22 1.0 3.0 0.00 0.00 0.00 54 1030.3
20181215232203 81 225 1.0 3.0 0.00 0.00 0.00 56 1030.3
20181215231702 80 106 1.0 3.0 0.00 0.00 0.00 58 1030.3
20181215230203 80 135 1.0 5.0 0.00 0.00 0.00 55 1030.1
20181215225704 81 240 1.0 3.0 0.00 0.00 0.00 55 1030.1
20181215225202 81 180 1.0 5.0 0.00 0.00 0.00 54 1030.1
20181215224704 81 110 1.0 5.0 0.00 0.00 0.00 55 1029.9